Location: Malanoce
(44.2500°N, 7.4667°E)
Time: 02:17:28
(UTC+00:00)

ISS - Visible Passes

Search period start: 19 January 2026 00:00
Search period end: 29 January 2026 00:00
Orbit: 413 x 424 km, 51.6° (Epoch: 18 January)

Date Brightness Start Highest point End Pass type
(mag) Time Alt. Az. Time Alt. Az. Time Alt. Az.
19 Jan -2.2 17:40:05 10° WNW 17:42:55 25° N 17:44:17 19° NNE visible
20 Jan -2.4 16:51:57 10° WNW 16:54:55 29° NNW 16:57:54 10° NE visible
20 Jan -1.6 18:29:39 10° NW 18:31:20 20° NNW 18:31:20 20° NNW visible
21 Jan -2.1 17:41:39 10° NW 17:44:21 22° N 17:45:26 19° NNE visible
22 Jan -2.1 16:53:32 10° WNW 16:56:17 23° N 16:59:01 10° NE visible
22 Jan -1.8 18:30:46 10° NW 18:32:30 22° NNW 18:32:30 22° NNW visible
23 Jan -2.4 17:42:50 10° NW 17:45:40 25° N 17:46:37 22° NE visible
23 Jan -0.3 19:19:30 10° WNW 19:19:34 10° WNW 19:19:34 10° WNW visible
24 Jan -2.4 18:31:36 10° NW 18:33:45 33° NNW 18:33:45 33° NNW visible
25 Jan -3.0 17:43:42 10° NW 17:46:50 36° NNE 17:47:59 27° ENE visible
25 Jan -0.5 19:20:28 10° WNW 19:20:56 13° WNW 19:20:56 13° WNW visible
26 Jan -3.3 18:32:24 10° WNW 18:35:16 59° W 18:35:16 59° W visible
27 Jan -3.9 17:44:24 10° WNW 17:47:44 72° NNE 17:49:43 22° ESE visible
27 Jan -0.5 19:21:56 10° W 19:22:41 13° WSW 19:22:41 13° WSW visible
28 Jan -1.9 18:33:25 10° WNW 18:36:18 27° SW 18:37:20 23° S visible
